Hourly Weather Golabki

Today, 17 May, Monday

Time Temperature Precipitation Wind Pressure Humidity
00:00 +9°C° 0 mm 3 mps 742 mmHg 88%
01:00 +8°C° 0 mm 3 mps 741 mmHg 90%
02:00 +8°C° 0 mm 3 mps 741 mmHg 91%
03:00 +8°C° 0 mm 3 mps 741 mmHg 92%
04:00 +8°C° 0 mm 3 mps 741 mmHg 93%
05:00 +9°C° 0.1 mm 3 mps 741 mmHg 89%
06:00 +12°C° 0.1 mm 2 mps 742 mmHg 85%
07:00 +13°C° 0.1 mm 2 mps 742 mmHg 81%
08:00 +14°C° 0.1 mm 2 mps 742 mmHg 76%
09:00 +16°C° 0.1 mm 2 mps 742 mmHg 71%
10:00 +17°C° 0.1 mm 2 mps 742 mmHg 66%
11:00 +18°C° 0.1 mm 2 mps 742 mmHg 63%
12:00 +18°C° 0.1 mm 2 mps 742 mmHg 60%
13:00 +19°C° 0.1 mm 2 mps 742 mmHg 56%
14:00 +18°C° 0.3 mm 2 mps 742 mmHg 61%
15:00 +18°C° 0.3 mm 2 mps 742 mmHg 66%
16:00 +17°C° 0.3 mm 2 mps 742 mmHg 71%
17:00 +16°C° 0.5 mm 2 mps 742 mmHg 76%
18:00 +15°C° 0.5 mm 2 mps 742 mmHg 80%
19:00 +13°C° 0.5 mm 2 mps 742 mmHg 85%
20:00 +13°C° 0.3 mm 2 mps 742 mmHg 86%
21:00 +13°C° 0.3 mm 2 mps 742 mmHg 87%
22:00 +13°C° 0.3 mm 1 mps 742 mmHg 88%
23:00 +12°C° 0.2 mm 2 mps 743 mmHg 89%

Tomorrow, 18 May, Tuesday

Time Temperature Precipitation Wind Pressure Humidity
00:00 +12°C° 0.2 mm 2 mps 743 mmHg 90%
01:00 +10°C° 0.2 mm 2 mps 743 mmHg 91%
02:00 +10°C° 0.2 mm 2 mps 743 mmHg 93%
03:00 +10°C° 0.2 mm 3 mps 743 mmHg 94%
04:00 +10°C° 0.2 mm 3 mps 743 mmHg 95%
05:00 +10°C° 0 mm 4 mps 744 mmHg 94%
06:00 +11°C° 0 mm 4 mps 744 mmHg 92%
07:00 +10°C° 0 mm 5 mps 744 mmHg 91%
08:00 +12°C° 0.1 mm 5 mps 744 mmHg 87%
09:00 +13°C° 0.1 mm 5 mps 744 mmHg 83%
10:00 +13°C° 0.1 mm 5 mps 745 mmHg 79%
11:00 +14°C° 0.2 mm 5 mps 745 mmHg 76%
12:00 +14°C° 0.2 mm 5 mps 745 mmHg 73%
13:00 +15°C° 0.2 mm 5 mps 745 mmHg 70%
14:00 +15°C° 0.3 mm 5 mps 745 mmHg 71%
15:00 +15°C° 0.3 mm 4 mps 745 mmHg 73%
16:00 +15°C° 0.3 mm 4 mps 745 mmHg 74%
17:00 +14°C° 0.5 mm 4 mps 745 mmHg 78%
18:00 +13°C° 0.5 mm 4 mps 746 mmHg 83%
19:00 +12°C° 0.5 mm 3 mps 746 mmHg 88%
20:00 +11°C° 0.1 mm 3 mps 746 mmHg 90%
21:00 +10°C° 0.1 mm 3 mps 746 mmHg 92%
22:00 +9°C° 0.1 mm 3 mps 746 mmHg 94%
23:00 +9°C° 0 mm 3 mps 746 mmHg 95%

Day after tomorrow, 19 May, Wednesday

Time Temperature Precipitation Wind Pressure Humidity
00:00 +8°C° 0 mm 3 mps 747 mmHg 96%
01:00 +8°C° 0 mm 3 mps 747 mmHg 96%
02:00 +7°C° 0.2 mm 3 mps 747 mmHg 96%
03:00 +7°C° 0.2 mm 3 mps 747 mmHg 97%
04:00 +7°C° 0.2 mm 3 mps 747 mmHg 97%
05:00 +8°C° 0 mm 3 mps 748 mmHg 94%
06:00 +9°C° 0 mm 3 mps 748 mmHg 91%
07:00 +10°C° 0 mm 4 mps 748 mmHg 87%
08:00 +11°C° 0.1 mm 4 mps 748 mmHg 82%
09:00 +12°C° 0.1 mm 4 mps 748 mmHg 77%
10:00 +13°C° 0.1 mm 4 mps 748 mmHg 71%
11:00 +14°C° 0.4 mm 4 mps 748 mmHg 71%
12:00 +14°C° 0.4 mm 4 mps 748 mmHg 72%
13:00 +14°C° 0.4 mm 4 mps 748 mmHg 72%
14:00 +14°C° 0.9 mm 4 mps 748 mmHg 73%
15:00 +14°C° 0.9 mm 4 mps 748 mmHg 74%
16:00 +14°C° 0.9 mm 4 mps 749 mmHg 75%
17:00 +13°C° 0.7 mm 4 mps 749 mmHg 79%
18:00 +12°C° 0.7 mm 4 mps 749 mmHg 83%
19:00 +11°C° 0.7 mm 4 mps 749 mmHg 88%
20:00 +10°C° 0 mm 4 mps 749 mmHg 89%
21:00 +8°C° 0 mm 4 mps 750 mmHg 90%
22:00 +8°C° 0 mm 3 mps 750 mmHg 92%
23:00 +7°C° 0 mm 3 mps 750 mmHg 91%

20 May, Thursday

Time Temperature Precipitation Wind Pressure Humidity
00:00 +5°C° 0 mm 3 mps 750 mmHg 90%
01:00 +5°C° 0 mm 3 mps 750 mmHg 89%
02:00 +4°C° 0 mm 3 mps 751 mmHg 90%
03:00 +4°C° 0 mm 3 mps 751 mmHg 90%
04:00 +3°C° 0 mm 3 mps 751 mmHg 91%
05:00 +5°C° 0 mm 3 mps 751 mmHg 87%
06:00 +8°C° 0 mm 3 mps 751 mmHg 84%
07:00 +8°C° 0 mm 4 mps 751 mmHg 81%
08:00 +11°C° 0 mm 4 mps 751 mmHg 75%
09:00 +12°C° 0 mm 4 mps 751 mmHg 69%
10:00 +14°C° 0 mm 5 mps 751 mmHg 63%
11:00 +14°C° 0.1 mm 5 mps 751 mmHg 62%
12:00 +15°C° 0.1 mm 6 mps 751 mmHg 61%
13:00 +15°C° 0.1 mm 6 mps 751 mmHg 61%
14:00 +15°C° 0.1 mm 6 mps 751 mmHg 61%
15:00 +15°C° 0.1 mm 6 mps 751 mmHg 62%
16:00 +15°C° 0.1 mm 7 mps 751 mmHg 63%
17:00 +13°C° 0 mm 6 mps 752 mmHg 67%
18:00 +11°C° 0 mm 6 mps 752 mmHg 70%
19:00 +9°C° 0 mm 5 mps 752 mmHg 74%
20:00 +8°C° 0 mm 5 mps 752 mmHg 78%
21:00 +6°C° 0 mm 4 mps 753 mmHg 82%
22:00 +5°C° 0 mm 3 mps 753 mmHg 86%
23:00 +4°C° 0 mm 3 mps 753 mmHg 87%

21 May, Friday

Time Temperature Precipitation Wind Pressure Humidity
00:00 +4°C° 0 mm 3 mps 753 mmHg 88%
01:00 +4°C° 0 mm 3 mps 753 mmHg 89%
02:00 +3°C° 0 mm 4 mps 753 mmHg 89%
03:00 +3°C° 0 mm 4 mps 753 mmHg 89%
04:00 +3°C° 0 mm 4 mps 753 mmHg 90%
05:00 +3°C° 0 mm 5 mps 753 mmHg 85%
06:00 +5°C° 0 mm 5 mps 753 mmHg 80%
07:00 +7°C° 0 mm 6 mps 753 mmHg 75%
08:00 +8°C° 0 mm 6 mps 752 mmHg 70%
09:00 +9°C° 0 mm 6 mps 752 mmHg 64%
10:00 +10°C° 0 mm 6 mps 752 mmHg 59%
11:00 +11°C° 0 mm 6 mps 752 mmHg 60%
12:00 +12°C° 0 mm 5 mps 752 mmHg 60%
13:00 +12°C° 0 mm 4 mps 751 mmHg 61%
14:00 +13°C° 0 mm 4 mps 751 mmHg 62%
15:00 +13°C° 0 mm 3 mps 751 mmHg 62%
16:00 +13°C° 0 mm 3 mps 751 mmHg 63%
17:00 +14°C° 0 mm 2 mps 750 mmHg 66%
18:00 +13°C° 0 mm 2 mps 750 mmHg 70%
19:00 +12°C° 0 mm 2 mps 750 mmHg 74%
20:00 +12°C° 0 mm 2 mps 749 mmHg 75%
21:00 +11°C° 0 mm 3 mps 749 mmHg 76%
22:00 +10°C° 0 mm 3 mps 749 mmHg 77%
23:00 +10°C° 0.2 mm 3 mps 749 mmHg 82%

22 May, Saturday

Time Temperature Precipitation Wind Pressure Humidity
00:00 +10°C° 0.2 mm 3 mps 748 mmHg 86%
01:00 +10°C° 0.2 mm 2 mps 748 mmHg 91%
02:00 +10°C° 0.2 mm 2 mps 748 mmHg 92%
03:00 +10°C° 0.2 mm 2 mps 747 mmHg 94%
04:00 +9°C° 0.2 mm 2 mps 747 mmHg 95%
05:00 +11°C° 0 mm 3 mps 747 mmHg 91%
06:00 +12°C° 0 mm 4 mps 747 mmHg 86%
07:00 +13°C° 0 mm 5 mps 746 mmHg 82%
08:00 +14°C° 0 mm 5 mps 746 mmHg 76%
09:00 +15°C° 0 mm 5 mps 746 mmHg 70%
10:00 +16°C° 0 mm 6 mps 746 mmHg 65%
11:00 +16°C° 0 mm 5 mps 746 mmHg 67%
12:00 +16°C° 0 mm 5 mps 746 mmHg 69%
13:00 +16°C° 0 mm 5 mps 746 mmHg 72%
14:00 +15°C° 0.5 mm 5 mps 746 mmHg 74%
15:00 +15°C° 0.5 mm 5 mps 746 mmHg 76%
16:00 +15°C° 0.5 mm 5 mps 746 mmHg 79%
17:00 +14°C° 0.2 mm 5 mps 747 mmHg 82%
18:00 +13°C° 0.2 mm 4 mps 747 mmHg 84%
19:00 +12°C° 0.2 mm 3 mps 747 mmHg 87%
20:00 +11°C° 0.1 mm 3 mps 747 mmHg 89%
21:00 +10°C° 0.1 mm 3 mps 747 mmHg 91%
22:00 +10°C° 0.1 mm 3 mps 748 mmHg 92%
23:00 +9°C° 0 mm 2 mps 748 mmHg 92%
Show more